ROMMA est une association bénévole à but non lucratif. Votre soutien est indispensable : ADHERER à ROMMA ou FAIRE un DON

Lans-en-Vercors - (38, Isère)

Vercors (990 m)   Longitude: 5° 33' 59'' E   Latitude: 45° 6' 3'' N Station partenaire n°80
 

Détail journalier du     <<     >>

Température Precipitation Humidité Pression Vent Dir Rafale Dir. rafale Ensol.
Heure (°C) (mm) (%) (hPa) (km/h) (km/h) (min)
01:00 0.00881017037NNE0
02:00 -0.7089101703NNE0
03:00 -0.9091101700NNE0
04:00 -0.1089101702NNE0
05:00 -0.6090101700NNE0
06:00 -0.2090101700NNE0
07:00 0.2090101705NNE0
08:00 1.2090101706NNE0
09:00 4.0081101703NNE10
10:00 7.906810171NNE6NNE20
11:00 11.305610165NE18NE60
12:00 12.4053101513N26N60
13:00 13.6052101513NE26NE60
14:00 14.7045101412N27N60
15:00 13.7050101413NNO27NNO60
16:00 12.7051101415N29NO60
17:00 12.0056101415NO29NO60
18:00 10.1060101515NNO31NO60
19:00 7.9069101510NO23NO30
20:00 5.907610161NO18NO0
21:00 3.608210171SO8SO0
22:00 3.3084101705SO0
23:00 2.2087101603SO0
minuit 1.2091101703SO0

Graphique du 28-03-2020

 

Serveur OMMA